This demonstration page uses our WeatherBlox Daily Observations layout. Learn more.

Left ArrowRight Arrow

39.51506, -84.39828

Hourly Observations for July 27, 2015

Temp ( °F °C ) Dew Point ( °F °C ) Humidity (%) Winds ( mph kmh ) Pressure ( in mb ) Visibility ( mi km ) Precip ( " mm )
12:15 am 00:15 Cloudy 74 23.6 71 21.7 89 89 W 5 7 29.97 1015 7 11 N/A
12:35 am 00:35 Mostly Cloudy 74 23.6 70 21.2 86 86 N N/A 29.97 1015 7 11 N/A
12:55 am 00:55 Mostly Cloudy 74 23.6 70 21 85 85 W 3 6 29.97 1015 7 11 N/A
1:15 am 01:15 Mostly Cloudy 74 23.6 70 21.3 87 87 N N/A 29.97 1015 7 11 N/A
1:35 am 01:35 Partly Cloudy 74 23.6 70 21.1 86 86 N N/A 29.97 1015 7 11 N/A
1:55 am 01:55 Mostly Cloudy with Mist and Fog 74 23.6 71 21.4 88 88 N N/A 29.94 1014 5 8 N/A
2:15 am 02:15 Mostly Cloudy with Mist and Fog 74 23.6 71 21.7 89 89 ESE 3 6 29.94 1014 5 8 N/A
2:35 am 02:35 Partly Cloudy with Mist and Fog 74 23.6 71 21.7 89 89 NE 5 7 29.94 1014 5 8 N/A
2:55 am 02:55 Clear with Mist and Fog 74 23.6 71 21.7 89 89 N N/A 29.94 1014 4 6 N/A
3:15 am 03:15 Partly Cloudy with Mist and Fog 74 23.6 71 21.8 90 90 N N/A 29.94 1014 3 5 N/A
3:35 am 03:35 Cloudy with Mist and Fog 74 23.6 72 22 91 91 N N/A 29.94 1014 4 6 N/A
3:55 am 03:55 Cloudy with Mist and Fog 74 23.6 72 22 91 91 N N/A 29.94 1014 4 6 N/A
4:15 am 04:15 Partly Cloudy with Mist and Fog 74 23.6 72 22 91 91 N N/A 29.94 1014 3 5 N/A
4:35 am 04:35 Mostly Cloudy with Mist and Fog 74 23.6 72 22 91 91 NNE 3 6 29.94 1014 3 5 N/A
4:55 am 04:55 Cloudy with Mist and Fog 74 23.6 72 22 91 91 N N/A 29.91 1013 4 6 N/A
5:15 am 05:15 Cloudy with Mist and Fog 74 23.6 72 22 91 91 N N/A 29.94 1014 4 6 N/A
5:35 am 05:35 Mostly Cloudy with Mist and Fog 74 23.6 72 22 91 91 NW 5 7 29.94 1014 4 6 N/A
5:55 am 05:55 Mostly Cloudy with Mist and Fog 74 23.6 72 22 91 91 N 3 6 29.94 1014 5 8 N/A
6:15 am 06:15 Partly Cloudy 74 23.6 71 21.8 90 90 N 6 9 29.97 1015 7 11 N/A
6:35 am 06:35 Mostly Cloudy 74 23.6 71 21.6 89 89 N N/A 29.97 1015 7 11 N/A
6:55 am 06:55 Cloudy 74 23.6 71 21.6 89 89 ENE 3 6 29.97 1015 7 11 N/A
7:15 am 07:15 Cloudy 74 23.6 71 21.6 89 89 N N/A 29.97 1015 7 11 N/A
7:35 am 07:35 Cloudy with Drizzle 74 23.6 71 21.6 89 89 N N/A 29.97 1015 7 11 N/A
7:55 am 07:55 Cloudy 74 23.6 71 21.5 88 88 N N/A 29.97 1015 7 11 N/A
8:15 am 08:15 Cloudy with Light Rain 74 23.6 71 21.6 89 89 N N/A 29.97 1015 7 11 N/A
8:35 am 08:35 Cloudy with Light Rain 74 23.6 71 21.7 89 89 NE 5 7 29.97 1015 4 6 N/A
8:55 am 08:55 Cloudy with Mist and Fog 74 23.6 71 21.7 89 89 N N/A 29.97 1015 5 8 N/A
9:15 am 09:15 Cloudy with Mist and Fog 74 23.6 71 21.6 89 89 N N/A 29.97 1015 5 8 N/A
9:35 am 09:35 Cloudy with Mist and Fog 74 23.6 71 21.7 89 89 N N/A 30.00 1016 5 8 N/A
9:55 am 09:55 Cloudy with Mist and Fog 74 23.6 71 21.7 89 89 N N/A 30.00 1016 5 8 N/A
10:15 am 10:15 Mostly Cloudy with Mist and Fog 74 23.6 71 21.6 89 89 N N/A 30.00 1016 5 8 N/A
10:35 am 10:35 Mostly Cloudy with Mist and Fog 77 25 73 22.9 88 88 N N/A 30.00 1016 5 8 N/A
10:55 am 10:55 Cloudy 77 25.1 73 22.9 88 88 N N/A 30.00 1016 7 11 N/A
11:15 am 11:15 Cloudy 77 25.1 73 22.7 87 87 N N/A 30.00 1016 7 11 N/A
11:35 am 11:35 Cloudy 77 25.1 73 22.6 86 86 N N/A 30.00 1016 7 11 N/A
11:55 am 11:55 Mostly Cloudy 77 25.1 73 22.7 87 87 ENE 5 7 30.00 1016 7 11 N/A
12:15 pm 12:15 Mostly Cloudy 78 25.8 73 22.9 84 84 E 5 7 30.00 1016 7 11 N/A
12:35 pm 12:35 Cloudy 80 26.5 74 23.5 84 84 E 6 9 30.00 1016 10 16 N/A
12:55 pm 12:55 Mostly Cloudy 80 26.5 73 22.7 80 80 E 6 9 30.00 1016 10 16 N/A
1:15 pm 13:15 Mostly Cloudy 80 26.5 73 23 81 81 ENE 7 11 30.00 1016 10 16 N/A
1:35 pm 13:35 Mostly Cloudy 80 26.5 73 22.9 81 81 ESE 7 11 30.00 1016 10 16 N/A
1:55 pm 13:55 Mostly Cloudy 81 27.2 74 23.3 79 79 ESE 5 7 30.00 1016 10 16 N/A
2:15 pm 14:15 Mostly Cloudy 82 27.7 74 23.4 77 77 ESE 5 7 29.94 1014 10 16 N/A
2:35 pm 14:35 Mostly Cloudy 81 27.4 73 22.6 75 75 SSE 3 6 29.97 1015 10 16 N/A
2:55 pm 14:55 Mostly Cloudy 82 27.9 73 22.9 74 74 N N/A 29.94 1014 10 16 N/A
3:15 pm 15:15 Mostly Cloudy 82 27.8 71 21.8 70 70 SSE 3 6 29.94 1014 10 16 N/A
3:35 pm 15:35 Cloudy 83 28.1 72 22 70 70 ESE 7 11 29.94 1014 10 16 N/A
3:55 pm 15:55 Cloudy 83 28.6 72 22.1 68 68 N N/A 29.94 1014 10 16 N/A
4:15 pm 16:15 Cloudy 84 29 72 22.2 67 67 ENE 5 7 29.91 1013 10 16 N/A
4:35 pm 16:35 Mostly Cloudy 84 28.7 71 21.7 66 66 N N/A 29.91 1013 10 16 N/A
4:55 pm 16:55 Partly Cloudy 83 28.6 71 21.5 65 65 N N/A 29.91 1013 10 16 N/A
5:15 pm 17:15 Mostly Cloudy 84 28.7 70 21.2 64 64 N N/A 29.91 1013 10 16 N/A
5:35 pm 17:35 Cloudy 83 28.6 71 21.8 67 67 NE 3 6 29.91 1013 10 16 N/A
5:55 pm 17:55 Cloudy 83 28.6 71 21.5 65 65 NE 5 7 29.91 1013 10 16 N/A
6:15 pm 18:15 Cloudy 84 28.7 72 22.1 68 68 NE 6 9 29.91 1013 10 16 N/A
6:35 pm 18:35 Cloudy 85 29.3 72 22.2 66 66 NE 5 7 29.91 1013 10 16 N/A
6:55 pm 18:55 Cloudy 84 29 71 21.4 64 64 E 3 6 29.91 1013 10 16 N/A
7:15 pm 19:15 Cloudy 84 28.7 71 21.5 65 65 ENE 5 7 29.91 1013 N/A N/A
7:35 pm 19:35 Mostly Cloudy 84 28.7 71 21.9 67 67 E 3 6 29.91 1013 10 16 N/A
7:55 pm 19:55 Sunny 83 28.2 70 21.3 66 66 E 3 6 29.91 1013 N/A N/A
8:15 pm 20:15 Sunny 82 28 73 22.6 73 73 ESE 3 6 29.91 1013 10 16 N/A
8:35 pm 20:35 Sunny 81 27.2 71 21.8 72 72 E 3 6 29.94 1014 10 16 N/A
8:55 pm 20:55 Sunny 80 26.5 72 22.4 78 78 ENE 3 6 29.94 1014 10 16 N/A
9:15 pm 21:15 Clear 77 25.1 72 22.3 85 85 NNE 3 6 29.97 1015 7 11 N/A
9:35 pm 21:35 Clear 77 25.1 73 22.6 86 86 N N/A 29.97 1015 7 11 N/A
9:55 pm 21:55 Clear 77 25.1 73 22.8 87 87 N N/A 29.97 1015 7 11 N/A
10:15 pm 22:15 Partly Cloudy 77 24.9 73 22.7 88 88 N N/A 29.97 1015 7 11 N/A
10:35 pm 22:35 Clear 74 23.6 71 21.5 88 88 N N/A 30.00 1016 7 11 N/A
10:55 pm 22:55 Clear 74 23.6 71 21.5 88 88 N N/A 30.00 1016 7 11 N/A
11:15 pm 23:15 Partly Cloudy 74 23.6 71 21.5 88 88 N N/A 30.00 1016 7 11 N/A
11:35 pm 23:35 Mostly Cloudy with Mist and Fog 74 23.6 71 21.6 89 89 N N/A 30.00 1016 5 8 N/A
11:55 pm 23:55 Cloudy with Mist and Fog 74 23.6 71 21.7 89 89 N N/A 30.00 1016 5 8 N/A

Powered by AerisWeather